Voltar ao catálogo

SL-12 R/B(2)

LostMEO
NORAD 20623·ROCKET BODY·🇷🇺 Russia

Lançado May 19, 1990 de Baikonur Cosmodrome

Loading…

Próximas Passagens (próximas 24 horas)

TLE

ObsoletoSource: Space-Track

Época: Aug 1, 2026, 09:11 UTC

1 20623U 90045E   26213.38310403 -.00000031  00000-0  00000+0 0  9991
2 20623  64.6532 305.4574 0013666 341.6785  22.7943  2.13419204282303

Acompanhe SL-12 R/B(2) em tempo real com AllMySat

Download on the App Store